When you browse on this site, cookies collect data to enhance your experience and personalize the content and advertising you see.
Visit our Privacy Policy to learn more. By continuing to use the site, you agree to this use of cookies and data.
  • In Belgien
  • Länderverzeichnis
  • Für 7 Tage
  • Wassertemperatur
  • Satellitenkarten
  • Wetterkarte
  • Widgets
  • user-avatar
    Anmelden

    Stündliche Wetter Etschmiadsin

    Heute, 22 Januar, Dienstag

    Zeit Temperatur Niederschläge Wind Luftdruck Luftfeuchtigkeit
    00:00 -3°C° 0 mm 2 m/S 688 mmHg 44%
    01:00 -1°C° 0 mm 1 m/S 688 mmHg 44%
    02:00 -1°C° 0 mm 1 m/S 688 mmHg 45%
    03:00 -1°C° 0 mm 1 m/S 687 mmHg 44%
    04:00 -1°C° 0 mm 1 m/S 687 mmHg 44%
    05:00 -1°C° 0 mm 1 m/S 687 mmHg 44%
    06:00 -3°C° 0 mm 2 m/S 687 mmHg 44%
    07:00 0°C° 0 mm 1 m/S 687 mmHg 42%
    08:00 +1°C° 0 mm 1 m/S 687 mmHg 40%
    09:00 +2°C° 0 mm 1 m/S 687 mmHg 38%
    10:00 +3°C° 0 mm 1 m/S 687 mmHg 37%
    11:00 +4°C° 0 mm 1 m/S 687 mmHg 36%
    12:00 +4°C° 0 mm 2 m/S 686 mmHg 35%
    13:00 +5°C° 0 mm 1 m/S 686 mmHg 35%
    14:00 +5°C° 0 mm 1 m/S 686 mmHg 35%
    15:00 +6°C° 0 mm 1 m/S 685 mmHg 37%
    16:00 +4°C° 0 mm 1 m/S 686 mmHg 40%
    17:00 +3°C° 0 mm 1 m/S 686 mmHg 42%
    18:00 +2°C° 0 mm 1 m/S 686 mmHg 45%
    19:00 +2°C° 0 mm 1 m/S 686 mmHg 46%
    20:00 +1°C° 0 mm 1 m/S 687 mmHg 47%
    21:00 +1°C° 0 mm 1 m/S 687 mmHg 48%
    22:00 +1°C° 0 mm 1 m/S 687 mmHg 49%
    23:00 0°C° 0 mm 1 m/S 687 mmHg 50%

    Morgen, 23 Januar, Mittwoch

    Zeit Temperatur Niederschläge Wind Luftdruck Luftfeuchtigkeit
    00:00 0°C° 0 mm 1 m/S 687 mmHg 50%
    01:00 0°C° 0 mm 1 m/S 687 mmHg 51%
    02:00 0°C° 0 mm 1 m/S 687 mmHg 51%
    03:00 0°C° 0 mm 1 m/S 687 mmHg 52%
    04:00 -1°C° 0 mm 1 m/S 687 mmHg 52%
    05:00 -1°C° 0 mm 1 m/S 687 mmHg 52%
    06:00 -1°C° 0 mm 1 m/S 687 mmHg 52%
    07:00 0°C° 0 mm 1 m/S 688 mmHg 50%
    08:00 +1°C° 0 mm 1 m/S 688 mmHg 48%
    09:00 +2°C° 0 mm 1 m/S 688 mmHg 45%
    10:00 +2°C° 0 mm 2 m/S 688 mmHg 44%
    11:00 +3°C° 0 mm 2 m/S 688 mmHg 42%
    12:00 +4°C° 0 mm 2 m/S 688 mmHg 41%
    13:00 +4°C° 0 mm 2 m/S 687 mmHg 41%
    14:00 +5°C° 0 mm 2 m/S 687 mmHg 40%
    15:00 +5°C° 0 mm 2 m/S 687 mmHg 40%
    16:00 +4°C° 0 mm 2 m/S 687 mmHg 43%
    17:00 +3°C° 0 mm 2 m/S 688 mmHg 45%
    18:00 +2°C° 0 mm 2 m/S 688 mmHg 47%
    19:00 +1°C° 0 mm 2 m/S 688 mmHg 49%
    20:00 +1°C° 0 mm 2 m/S 688 mmHg 50%
    21:00 +1°C° 0 mm 2 m/S 689 mmHg 51%
    22:00 -1°C° 0 mm 2 m/S 689 mmHg 53%
    23:00 -1°C° 0 mm 2 m/S 689 mmHg 55%

    übermorgen, 24 Januar, Donnerstag

    Zeit Temperatur Niederschläge Wind Luftdruck Luftfeuchtigkeit
    00:00 -1°C° 0 mm 2 m/S 689 mmHg 56%
    01:00 -1°C° 0 mm 2 m/S 689 mmHg 57%
    02:00 -2°C° 0 mm 2 m/S 689 mmHg 57%
    03:00 -2°C° 0 mm 2 m/S 689 mmHg 58%
    04:00 -2°C° 0 mm 2 m/S 689 mmHg 57%
    05:00 -2°C° 0 mm 2 m/S 689 mmHg 57%
    06:00 -2°C° 0 mm 2 m/S 689 mmHg 57%
    07:00 -1°C° 0 mm 2 m/S 689 mmHg 54%
    08:00 +1°C° 0 mm 2 m/S 689 mmHg 52%
    09:00 +1°C° 0 mm 2 m/S 689 mmHg 49%
    10:00 +2°C° 0 mm 2 m/S 689 mmHg 47%
    11:00 +4°C° 0 mm 2 m/S 689 mmHg 46%
    12:00 +4°C° 0 mm 3 m/S 688 mmHg 44%
    13:00 +4°C° 0 mm 3 m/S 688 mmHg 44%
    14:00 +4°C° 0 mm 3 m/S 687 mmHg 44%
    15:00 +5°C° 0 mm 3 m/S 687 mmHg 43%
    16:00 +4°C° 0 mm 3 m/S 687 mmHg 46%
    17:00 +3°C° 0 mm 3 m/S 688 mmHg 48%
    18:00 +2°C° 0 mm 3 m/S 688 mmHg 51%
    19:00 +1°C° 0 mm 3 m/S 688 mmHg 52%
    20:00 +2°C° 0 mm 2 m/S 688 mmHg 53%
    21:00 +2°C° 0 mm 2 m/S 688 mmHg 54%
    22:00 +1°C° 0 mm 2 m/S 688 mmHg 54%
    23:00 +1°C° 0 mm 2 m/S 688 mmHg 55%

    25 Januar, Freitag

    Zeit Temperatur Niederschläge Wind Luftdruck Luftfeuchtigkeit
    00:00 +2°C° 0 mm 1 m/S 687 mmHg 55%
    01:00 +1°C° 0 mm 2 m/S 687 mmHg 55%
    02:00 +1°C° 0 mm 2 m/S 687 mmHg 54%
    03:00 +1°C° 0 mm 2 m/S 687 mmHg 54%
    04:00 +1°C° 0 mm 2 m/S 686 mmHg 53%
    05:00 +1°C° 0 mm 2 m/S 686 mmHg 53%
    06:00 +2°C° 0 mm 2 m/S 686 mmHg 53%
    07:00 +2°C° 0.1 mm 2 m/S 686 mmHg 53%
    08:00 +3°C° 0.1 mm 1 m/S 686 mmHg 54%
    09:00 +4°C° 0.1 mm 1 m/S 686 mmHg 55%
    10:00 +5°C° 0.1 mm 1 m/S 686 mmHg 55%
    11:00 +4°C° 0.1 mm 2 m/S 685 mmHg 56%
    12:00 +5°C° 0.1 mm 2 m/S 685 mmHg 56%
    13:00 +5°C° 0 mm 2 m/S 685 mmHg 55%
    14:00 +5°C° 0 mm 3 m/S 685 mmHg 54%
    15:00 +5°C° 0 mm 3 m/S 685 mmHg 53%
    16:00 +4°C° 0 mm 3 m/S 685 mmHg 56%
    17:00 +3°C° 0 mm 3 m/S 685 mmHg 59%
    18:00 +3°C° 0 mm 2 m/S 685 mmHg 61%
    19:00 +3°C° 0 mm 2 m/S 686 mmHg 62%
    20:00 +3°C° 0 mm 2 m/S 686 mmHg 62%
    21:00 +2°C° 0 mm 2 m/S 686 mmHg 63%
    22:00 +2°C° 0 mm 2 m/S 686 mmHg 63%
    23:00 +2°C° 0 mm 2 m/S 686 mmHg 63%

    26 Januar, Samstag

    Zeit Temperatur Niederschläge Wind Luftdruck Luftfeuchtigkeit
    00:00 +2°C° 0 mm 2 m/S 686 mmHg 63%
    01:00 +2°C° 0 mm 2 m/S 686 mmHg 63%
    02:00 +1°C° 0 mm 2 m/S 686 mmHg 63%
    03:00 +1°C° 0 mm 2 m/S 686 mmHg 63%
    04:00 +1°C° 0 mm 2 m/S 686 mmHg 63%
    05:00 +1°C° 0 mm 2 m/S 686 mmHg 62%
    06:00 +1°C° 0 mm 2 m/S 685 mmHg 62%
    07:00 +2°C° 0 mm 2 m/S 686 mmHg 59%
    08:00 +3°C° 0 mm 2 m/S 686 mmHg 56%
    09:00 +4°C° 0 mm 2 m/S 686 mmHg 53%
    10:00 +5°C° 0 mm 2 m/S 686 mmHg 49%
    11:00 +5°C° 0 mm 3 m/S 685 mmHg 46%
    12:00 +7°C° 0 mm 3 m/S 685 mmHg 42%
    13:00 +8°C° 0 mm 3 m/S 684 mmHg 41%
    14:00 +8°C° 0 mm 3 m/S 684 mmHg 40%
    15:00 +8°C° 0 mm 3 m/S 683 mmHg 39%
    16:00 +7°C° 0 mm 3 m/S 683 mmHg 42%
    17:00 +5°C° 0 mm 3 m/S 684 mmHg 45%
    18:00 +4°C° 0 mm 3 m/S 684 mmHg 48%
    19:00 +4°C° 0.1 mm 3 m/S 683 mmHg 51%
    20:00 +5°C° 0.1 mm 2 m/S 683 mmHg 54%
    21:00 +5°C° 0.1 mm 2 m/S 683 mmHg 57%
    22:00 +5°C° 0.1 mm 2 m/S 683 mmHg 60%
    23:00 +5°C° 0.1 mm 2 m/S 683 mmHg 63%

    27 Januar, Sonntag

    Zeit Temperatur Niederschläge Wind Luftdruck Luftfeuchtigkeit
    00:00 +4°C° 0.1 mm 3 m/S 682 mmHg 66%
    01:00 +4°C° 0.1 mm 2 m/S 682 mmHg 67%
    02:00 +4°C° 0.1 mm 2 m/S 682 mmHg 68%
    03:00 +4°C° 0.1 mm 2 m/S 682 mmHg 70%
    04:00 +4°C° 0 mm 2 m/S 682 mmHg 70%
    05:00 +4°C° 0 mm 2 m/S 682 mmHg 71%
    06:00 +3°C° 0 mm 3 m/S 682 mmHg 72%
    07:00 +5°C° 0 mm 2 m/S 682 mmHg 69%
    08:00 +6°C° 0 mm 2 m/S 682 mmHg 66%
    09:00 +6°C° 0 mm 2 m/S 683 mmHg 63%
    10:00 +8°C° 0 mm 3 m/S 682 mmHg 59%
    11:00 +9°C° 0 mm 3 m/S 682 mmHg 54%
    12:00 +10°C° 0 mm 3 m/S 682 mmHg 50%
    13:00 +10°C° 0 mm 3 m/S 682 mmHg 49%
    14:00 +11°C° 0 mm 3 m/S 682 mmHg 47%
    15:00 +11°C° 0 mm 3 m/S 681 mmHg 46%
    16:00 +10°C° 0 mm 3 m/S 682 mmHg 49%
    17:00 +9°C° 0 mm 2 m/S 682 mmHg 52%
    18:00 +7°C° 0 mm 2 m/S 683 mmHg 55%
    19:00 +7°C° 0 mm 2 m/S 683 mmHg 57%
    20:00 +6°C° 0 mm 2 m/S 683 mmHg 58%
    21:00 +6°C° 0 mm 2 m/S 683 mmHg 60%
    22:00 +6°C° 0 mm 2 m/S 683 mmHg 61%
    23:00 +5°C° 0 mm 2 m/S 683 mmHg 61%
    Mehr zeigen